CEB462 RPVI-RPLL

Flight info

Callsign CEB462
Flight time N/A
Altitude 28000
Route LAMBO1N LAMBO B472 IBAGO IBAGO3R
Aircraft A321/M-SDE3FGHIRWY/LB1

Departure

Time N/A
Airport Iloilo International Airport (RPVI)

Arrival

Time 2026-04-30 13:21
Airport Ninoy Aquino International Airport (RPLL)
Time Latitude Longitude Altitude Speed Heading
2026-04-30 12:52 12.17750 121.91054 27334 ft 397 kts 335°
2026-04-30 12:52 12.20284 121.89949 27715 ft 397 kts 335°
2026-04-30 12:52 12.22854 121.88824 27828 ft 403 kts 335°
2026-04-30 12:53 12.25461 121.87682 27834 ft 405 kts 335°
2026-04-30 12:53 12.28069 121.86540 27840 ft 405 kts 335°
2026-04-30 12:53 12.30655 121.85407 27840 ft 405 kts 335°
2026-04-30 12:53 12.33257 121.84267 27844 ft 405 kts 335°
2026-04-30 12:54 12.35840 121.83138 27842 ft 405 kts 335°
2026-04-30 12:54 12.38442 121.82005 27844 ft 405 kts 335°
2026-04-30 12:54 12.41079 121.80859 27843 ft 405 kts 335°
2026-04-30 12:54 12.43676 121.79727 27847 ft 405 kts 335°
2026-04-30 12:55 12.46265 121.78598 27848 ft 406 kts 335°
2026-04-30 12:55 12.48886 121.77451 27852 ft 415 kts 335°
2026-04-30 12:55 12.51593 121.76266 27855 ft 425 kts 335°
2026-04-30 12:55 12.54350 121.75059 27856 ft 434 kts 335°
2026-04-30 12:56 12.57155 121.73830 27852 ft 443 kts 335°
2026-04-30 12:56 12.60009 121.72580 27849 ft 451 kts 335°
2026-04-30 12:56 12.62915 121.71308 27847 ft 458 kts 335°
2026-04-30 12:56 12.65870 121.70014 27845 ft 465 kts 335°
2026-04-30 12:57 12.68909 121.68683 27848 ft 472 kts 335°
2026-04-30 12:57 12.71916 121.67364 27848 ft 477 kts 335°
2026-04-30 12:57 12.75013 121.66007 27851 ft 482 kts 335°
2026-04-30 12:57 12.78111 121.64648 27853 ft 484 kts 335°
2026-04-30 12:58 12.81215 121.63287 27852 ft 484 kts 335°
2026-04-30 12:58 12.84329 121.61919 27854 ft 484 kts 335°
2026-04-30 12:58 12.87437 121.60555 27856 ft 484 kts 335°
2026-04-30 12:58 12.90508 121.59204 27863 ft 484 kts 335°
2026-04-30 12:59 12.93617 121.57837 27863 ft 484 kts 335°
2026-04-30 12:59 12.96738 121.56464 27866 ft 485 kts 335°
2026-04-30 12:59 12.99839 121.55100 27871 ft 486 kts 335°
2026-04-30 12:59 13.02946 121.53732 27872 ft 486 kts 335°
2026-04-30 13:00 13.06036 121.52374 27804 ft 476 kts 335°
2026-04-30 13:00 13.09065 121.51041 27386 ft 466 kts 335°
2026-04-30 13:00 13.12026 121.49738 26919 ft 458 kts 335°
2026-04-30 13:00 13.14960 121.48451 26420 ft 450 kts 335°
2026-04-30 13:01 13.17804 121.47203 25894 ft 445 kts 335°
2026-04-30 13:01 13.20641 121.45953 25345 ft 439 kts 335°
2026-04-30 13:01 13.23452 121.44714 24851 ft 433 kts 335°
2026-04-30 13:01 13.26207 121.43498 24256 ft 430 kts 335°
2026-04-30 13:02 13.28955 121.42284 23532 ft 431 kts 335°
2026-04-30 13:02 13.31694 121.41072 22823 ft 431 kts 335°
2026-04-30 13:02 13.34466 121.39845 22102 ft 431 kts 335°
2026-04-30 13:02 13.37228 121.38623 21490 ft 429 kts 335°
2026-04-30 13:03 13.39954 121.37418 21015 ft 423 kts 335°
2026-04-30 13:03 13.42634 121.36231 20551 ft 417 kts 335°
2026-04-30 13:03 13.45297 121.35050 20087 ft 412 kts 335°
2026-04-30 13:03 13.47888 121.33896 19640 ft 407 kts 335°
2026-04-30 13:04 13.50483 121.32735 19190 ft 402 kts 335°
2026-04-30 13:04 13.53015 121.31470 18719 ft 398 kts 328°
2026-04-30 13:04 13.55228 121.29845 18265 ft 393 kts 318°
2026-04-30 13:04 13.57154 121.27869 17810 ft 388 kts 311°
2026-04-30 13:05 13.58948 121.25784 17360 ft 385 kts 310°
2026-04-30 13:05 13.60678 121.23734 16936 ft 381 kts 310°
2026-04-30 13:05 13.62422 121.21671 16491 ft 378 kts 310°
2026-04-30 13:06 13.66128 121.17980 15882 ft 367 kts 333°
2026-04-30 13:06 13.68595 121.17240 15902 ft 370 kts 349°
2026-04-30 13:06 13.71138 121.16831 15902 ft 371 kts 350°
2026-04-30 13:06 13.73716 121.16421 15897 ft 371 kts 350°
2026-04-30 13:07 13.76281 121.15993 15695 ft 370 kts 349°
2026-04-30 13:07 13.78811 121.15482 15453 ft 368 kts 342°
2026-04-30 13:07 13.81082 121.14292 15216 ft 364 kts 323°
2026-04-30 13:07 13.83028 121.12674 14993 ft 363 kts 318°
2026-04-30 13:08 13.84935 121.10953 14752 ft 363 kts 317°
2026-04-30 13:08 13.86828 121.09220 14498 ft 360 kts 317°
2026-04-30 13:08 13.88683 121.07517 14052 ft 358 kts 317°
2026-04-30 13:08 13.90558 121.05795 13539 ft 357 kts 317°
2026-04-30 13:09 13.92386 121.04114 13082 ft 355 kts 317°
2026-04-30 13:09 13.94247 121.02399 12633 ft 352 kts 317°
2026-04-30 13:09 13.96040 121.00734 12186 ft 349 kts 317°
2026-04-30 13:09 13.97832 120.99057 11746 ft 346 kts 317°
2026-04-30 13:10 13.99603 120.97389 11287 ft 344 kts 317°
2026-04-30 13:10 14.01397 120.95762 10798 ft 342 kts 322°
2026-04-30 13:10 14.03325 120.94370 10386 ft 333 kts 327°
2026-04-30 13:10 14.05232 120.93087 10128 ft 318 kts 327°
2026-04-30 13:11 14.07065 120.91860 9878 ft 303 kts 327°
2026-04-30 13:11 14.08784 120.90707 9599 ft 293 kts 327°
2026-04-30 13:11 14.10481 120.89565 9241 ft 290 kts 327°
2026-04-30 13:11 14.12187 120.88423 8856 ft 289 kts 328°
2026-04-30 13:12 14.13880 120.87292 8488 ft 288 kts 328°
2026-04-30 13:12 14.15550 120.86173 8128 ft 287 kts 328°
2026-04-30 13:12 14.17227 120.85043 7952 ft 285 kts 328°
2026-04-30 13:13 14.20695 120.83064 7883 ft 282 kts 337°
2026-04-30 13:13 14.22494 120.82250 7558 ft 280 kts 338°
2026-04-30 13:13 14.26121 120.80623 6511 ft 287 kts 338°
2026-04-30 13:14 14.27967 120.79789 5984 ft 289 kts 338°
2026-04-30 13:14 14.29792 120.78962 5451 ft 289 kts 338°
2026-04-30 13:14 14.33430 120.77293 4401 ft 281 kts 338°
2026-04-30 13:15 14.35277 120.76681 3849 ft 274 kts 358°
2026-04-30 13:15 14.38626 120.78085 2993 ft 263 kts 53°
2026-04-30 13:15 14.39372 120.79723 2865 ft 245 kts 75°
2026-04-30 13:16 14.39777 120.81415 2749 ft 239 kts 73°
2026-04-30 13:16 14.40358 120.82976 2601 ft 225 kts 65°
2026-04-30 13:16 14.41068 120.84359 2520 ft 208 kts 61°
2026-04-30 13:17 14.42392 120.86699 2417 ft 168 kts 60°
2026-04-30 13:17 14.42953 120.87698 2401 ft 157 kts 61°
2026-04-30 13:17 14.43518 120.88712 2400 ft 157 kts 62°
2026-04-30 13:18 14.44064 120.89697 2224 ft 156 kts 62°
2026-04-30 13:18 14.45139 120.91637 1821 ft 152 kts 62°
2026-04-30 13:18 14.45654 120.92564 1628 ft 150 kts 62°
2026-04-30 13:19 14.46177 120.93508 1440 ft 149 kts 62°
2026-04-30 13:19 14.46691 120.94435 1254 ft 149 kts 62°
2026-04-30 13:19 14.47213 120.95376 1072 ft 149 kts 62°
2026-04-30 13:19 14.47724 120.96294 881 ft 149 kts 63°
2026-04-30 13:20 14.48246 120.97236 703 ft 148 kts 62°
2026-04-30 13:20 14.48751 120.98148 521 ft 146 kts 63°
2026-04-30 13:20 14.49242 120.99055 310 ft 145 kts 62°
2026-04-30 13:20 14.49762 120.99966 146 ft 149 kts 65°
2026-04-30 13:21 14.50259 121.00859 82 ft 135 kts 63°
2026-04-30 13:21 14.50580 121.01435 82 ft 47 kts 57°
2026-04-30 13:21 14.50695 121.01642 82 ft 23 kts 52°
2026-04-30 13:22 14.50821 121.01762 82 ft 4 kts 37°
2026-04-30 13:22 14.50846 121.01780 82 ft 4 kts 28°
2026-04-30 13:22 14.50948 121.01729 82 ft 10 kts 314°
2026-04-30 13:23 14.51002 121.01672 82 ft 11 kts 314°
2026-04-30 13:23 14.51088 121.01584 82 ft 3 kts 315°
2026-04-30 13:24 14.51146 121.01524 82 ft 7 kts 315°
2026-04-30 13:24 14.51183 121.01486 82 ft 0 kts 315°
2026-04-30 13:26 14.51208 121.01461 82 ft 4 kts 316°
2026-04-30 13:26 14.51296 121.01450 82 ft 9 kts 43°
2026-04-30 13:27 14.51381 121.01547 82 ft 3 kts 45°
2026-04-30 13:28 14.51400 121.01566 82 ft 4 kts 44°
2026-04-30 13:28 14.51480 121.01565 82 ft 4 kts 318°
2026-04-30 13:28 14.51502 121.01561 82 ft 3 kts 14°
2026-04-30 13:29 14.51554 121.01601 82 ft 4 kts 44°
2026-04-30 13:29 14.51566 121.01614 82 ft 0 kts 44°